Riverbank, California, United States (95367)
Lat: 37.74N, Lon: 120.93W
Wx Zone: CAZ019
Local Info
Past Weather Observations for Tuesday, November 18, 2014

NOTE: This archive is for the closest National Weather Service station to Riverbank. Information may differ from the station used for current weather conditions.

Click here for Long-term Archive

Time Weather Temperature Dewpoint Humidity Pressure Winds Precip Visibility
23:53
Clear
Fog And Mist
48°F / 9°C 46°F / 8°C 94% 30.09 in
(1019 mb)
Calm - 3SM
22:53
Clear
Fog And Mist
50°F / 10°C 46°F / 8°C 88% 30.09 in
(1019 mb)
Calm - 4SM
21:53
Overcast
Fog And Mist
52°F / 11°C 46°F / 8°C 82% 30.09 in
(1019 mb)
Calm - 5SM
20:53
Partly Cloudy
Fog And Mist
52°F / 11°C 46°F / 8°C 82% 30.09 in
(1019 mb)
Calm - 4SM
19:53
Mostly Cloudy
Hazy
54°F / 12°C 46°F / 8°C 77% 30.09 in
(1019 mb)
Calm - 5SM
18:53
Overcast
Hazy
54°F / 12°C 46°F / 8°C 77% 30.09 in
(1019 mb)
Calm - 6SM
17:53
Clear
Hazy
54°F / 12°C 46°F / 8°C 77% 30.09 in
(1019 mb)
Calm - 6SM
16:53
Partly Cloudy
Hazy
57°F / 14°C 45°F / 7°C 63% 30.09 in
(1019 mb)
Calm - 6SM
15:53
Clear
Hazy
61°F / 16°C 43°F / 6°C 52% 30.09 in
(1019 mb)
Calm - 6SM
14:53
Clear
61°F / 16°C 43°F / 6°C 52% 30.09 in
(1019 mb)
Calm - 7SM
13:53
Clear
63°F / 17°C 43°F / 6°C 49% 30.12 in
(1020 mb)
SE 3.5 mph
(SE 6 kph)
- 7SM
12:53
Clear
61°F / 16°C 43°F / 6°C 52% 30.12 in
(1020 mb)
SE 4.6 mph
(SE 7 kph)
- 7SM
11:53
Clear
59°F / 15°C 43°F / 6°C 55% 30.15 in
(1021 mb)
S 5.8 mph
(S 9 kph)
- 7SM
10:53
Clear
Hazy
57°F / 14°C 46°F / 8°C 67% 30.18 in
(1022 mb)
E 4.6 mph
(E 7 kph)
- 5SM
09:53
Clear
Hazy
52°F / 11°C 45°F / 7°C 77% 30.18 in
(1022 mb)
ESE 4.6 mph
(ESE 7 kph)
- 5SM
08:53
Clear
Hazy
46°F / 8°C 43°F / 6°C 87% 30.18 in
(1022 mb)
ESE 3.5 mph
(ESE 6 kph)
- 5SM
07:53
Clear
Fog And Mist
43°F / 6°C 39°F / 4°C 87% 30.18 in
(1022 mb)
Calm - 5SM
07:04
Clear
Fog And Mist
37°F / 3°C 37°F / 3°C 100% 30.15 in
(1021 mb)
Calm - 5SM
06:53
Clear
Fog And Mist
37°F / 3°C 37°F / 3°C 100% 30.15 in
(1021 mb)
Calm - 3SM
05:53
Clear
Fog And Mist
37°F / 3°C 37°F / 3°C 100% 30.15 in
(1021 mb)
E 3.5 mph
(E 6 kph)
- 4SM
04:53
Clear
Fog And Mist
39°F / 4°C 37°F / 3°C 93% 30.15 in
(1021 mb)
ESE 3.5 mph
(ESE 6 kph)
- 4SM
03:53
Clear
Fog And Mist
39°F / 4°C 37°F / 3°C 93% 30.15 in
(1021 mb)
E 3.5 mph
(E 6 kph)
- 5SM
02:53
Clear
Fog And Mist
39°F / 4°C 37°F / 3°C 93% 30.15 in
(1021 mb)
Calm - 5SM
01:53
Clear
Fog And Mist
39°F / 4°C 37°F / 3°C 93% 30.15 in
(1021 mb)
SE 3.5 mph
(SE 6 kph)
- 4SM
00:53
Clear
Fog And Mist
41°F / 5°C 39°F / 4°C 93% 30.12 in
(1020 mb)
Calm - 5SM
Time Weather Temperature Dewpoint Humidity Pressure Winds Precip Visibility


Weather for websites

WeatherForYou.com, LLC is not responsible for any damages or problems caused by this service. Current weather conditions are obtained from the closest station including government and personal stations which may have varying degrees of accuracy. Weather forecasts are derived from the NOAA NDFD. Like all things, this site belongs to Jesus Christ... He just trusts me to maintain it. If you have any questions or comments email webmaster@weatherforyou.com

Copyright © 2014, WeatherForYou.com LLC. All rights reserved.